Вернуться в каталог

CZ-6A DEB

АктивенPO
NORAD 61135·DEBRIS·🇨🇳 China

Запущен Aug 6, 2024 с Taiyuan Satellite Launch Center

Loading…

Ближайшие Пролёты (ближайшие 24 часа)

TLE

СвежийSource: Space-Track

Эпоха: Sep 14, 2026, 10:39 UTC

1 61135U 24140QD  26257.44434613  .00000302  00000-0  18709-3 0  9991
2 61135  88.8502 255.0409 0143912 344.7360  14.9496 13.97783711105209

Отслеживайте CZ-6A DEB в реальном времени с AllMySat

Download on the App Store